Home > Time Zones > World Clock > Weather > France > Caen > Past weeks

Flag for France Weather past 2 weeks in Caen, France

Now
50 °F

Passing clouds.


Feels Like: 46 °F
Forecast: 51 / 65 °F
Wind: 9 mph from West

Location: Caen Airport

Current Time: Jul 29, 2015 at 7:44:02 AM

Latest Report: Jul 29, 2015 at 7:00 AM


Visibility: N/A

Pressure: 29.89 "Hg

Humidity: 88%

Dew point: 46 °F

Location of CaenLocation

Historic Weather in Caen — Graph

°F

Caen temperature yesterday

Maximum temperature yesterday: 63 °F (at 11:00 AM)
Minimum temperature yesterday: 54 °F (at 3:00 AM)
Average temperature yesterday: 57 °F

Past Weeks' High & Low Weather Summary

 TemperatureHumidityPressure
High82 °F (Jul 16, 6:30 PM)100% (Jul 16, 7:30 AM)30.15 "Hg (Jul 16, 7:30 AM)
Low50 °F (Jul 26, 1:30 AM)44% (Jul 18, 3:00 PM)29.56 "Hg (Jul 24, 9:00 PM)
Average64 °F79%29.95 "Hg
* Reported Jul 14 6:00 AM — Jul 29 6:00 AM, Caen, Weather by CustomWeather, © 2015

Note: Actual official high and low records may vary slightly from our data, if they occured in-between our weather recording intervals... More about our weather records

Advertising

Caen weather history for previous 24 hours

 ConditionsComfort  
Time TempWeatherWind HumidityBarometerVisibility
6:00 AM
Wed, Jul 29
50 °FClear.9 mph88%29.89 "Hg10 mi
5:30 AM52 °FMostly cloudy.9 mph88%29.89 "HgN/A
5:00 AM50 °FPassing clouds.8 mph94%29.89 "HgN/A
4:30 AM50 °FPassing clouds.9 mph88%29.89 "HgN/A
4:00 AM50 °FClear.9 mph88%29.89 "Hg10 mi
3:30 AM50 °FClear.9 mph88%29.89 "Hg10 mi
3:00 AM50 °FClear.9 mph88%29.89 "Hg10 mi
2:30 AM50 °FClear.7 mph94%29.89 "Hg10 mi
2:00 AM50 °FClear.8 mph94%29.89 "Hg10 mi
1:30 AM50 °FClear.8 mph94%29.89 "Hg10 mi
1:00 AM52 °FClear.8 mph88%29.89 "Hg10 mi
12:30 AM52 °FPassing clouds.9 mph88%29.89 "HgN/A
12:00 AM54 °FClear.9 mph82%29.89 "Hg10 mi
11:30 PM
Tue, Jul 28
54 °FClear.8 mph82%29.89 "Hg10 mi
11:00 PM54 °FClear.8 mph82%29.89 "Hg10 mi
10:30 PM55 °FPassing clouds.9 mph82%29.89 "HgN/A
10:00 PM55 °FSunny.9 mph77%29.89 "Hg10 mi
9:30 PM57 °FSunny.8 mph72%29.89 "Hg10 mi
9:00 PM57 °FSunny.10 mph72%29.89 "Hg10 mi
8:00 PM59 °FSunny.14 mph68%29.89 "Hg10 mi
7:30 PM59 °FPassing clouds.13 mph72%29.89 "HgN/A
7:00 PM59 °FMore clouds than sun.12 mph77%29.89 "HgN/A
6:30 PM57 °FMostly cloudy.15 mph82%29.89 "HgN/A
6:00 PM59 °FOvercast.14 mph77%29.89 "HgN/A
5:30 PM57 °FSunny.13 mph77%29.89 "Hg10 mi
5:00 PM57 °FOvercast.13 mph77%29.89 "HgN/A
4:30 PM57 °FPartly sunny.12 mph82%29.89 "HgN/A
4:00 PM57 °FLight rain. Mostly cloudy.13 mph77%29.89 "HgN/A
3:30 PM59 °FMostly cloudy.13 mph72%29.89 "HgN/A
3:00 PM59 °FMore clouds than sun.14 mph72%29.89 "HgN/A
2:30 PM59 °FOvercast.13 mph72%29.89 "HgN/A
2:00 PM59 °FPartly sunny.18 mph72%29.89 "HgN/A
1:30 PM63 °FPartly sunny.15 mph56%29.86 "HgN/A
1:00 PM63 °FPartly sunny.14 mph59%29.86 "HgN/A
12:30 PM63 °FMostly cloudy.14 mph56%29.86 "HgN/A
12:00 PM63 °FBroken clouds.13 mph59%29.86 "HgN/A
11:30 AM61 °FPartly sunny.17 mph59%29.86 "HgN/A
11:00 AM63 °FMostly cloudy.15 mph64%29.86 "HgN/A
10:30 AM61 °FPartly sunny.14 mph63%29.86 "HgN/A
10:00 AM61 °FScattered clouds.14 mph68%29.86 "HgN/A
9:30 AM59 °FPartly sunny.10 mph72%29.86 "HgN/A
9:00 AM59 °FSunny.10 mph72%29.86 "Hg10 mi
8:30 AM57 °FSunny.8 mph77%29.86 "Hg10 mi
8:00 AM55 °FSunny.9 mph82%29.86 "Hg10 mi
7:30 AM54 °FSunny.8 mph88%29.83 "Hg10 mi
7:00 AM54 °FClear.8 mph88%29.83 "Hg10 mi
Weather by CustomWeather, © 2015

See weather overviewHow to use our weather pages